GW2804 Weather Reports


time (UTC)temp
F
wind
direction
speed
knots
gust
knots
rain 1hr
in
rain 24hr
in
rain mn
in
humidity
%
barometer
mb
20260906154601 72 95 4.3 10.4 0.00 0.00 0.00 88 1019.4
20260906153100 72 97 4.3 9.6 0.00 0.00 0.00 88 1019.3
20260906151604 72 97 3.5 7.8 0.00 0.00 0.00 88 1019.4
20260906150101 72 98 4.3 10.4 0.00 0.00 0.00 88 1019.2
20260906144603 72 93 4.3 9.6 0.00 0.00 0.00 88 1018.9
20260906143113 72 109 5.2 10.4 0.00 0.00 0.00 88 1018.9
20260906141603 72 90 2.6 7.0 0.00 0.00 0.00 89 1018.9
20260906140105 72 60 5.2 9.6 0.00 0.00 0.00 90 1018.7
20260906134556 72 90 5.2 9.6 0.00 0.00 0.00 90 1018.5
20260906133106 72 94 5.2 9.6 0.00 0.00 0.00 90 1018.4
20260906131603 71 68 3.5 8.7 0.00 0.00 0.00 92 1018.3
20260906124556 70 48 2.6 7.0 0.00 0.00 0.00 94 1018.1
20260906123104 70 122 3.5 7.8 0.00 0.00 0.00 94 1017.9
20260906121601 70 92 2.6 7.0 0.00 0.00 0.00 94 1017.9
20260906120113 70 70 2.6 7.0 0.00 0.00 0.00 93 1017.9
20260906114558 70 67 1.7 6.1 0.00 0.00 0.00 93 1017.7
20260906113103 71 77 2.6 7.0 0.00 0.00 0.00 93 1017.5
20260906111612 71 96 1.7 5.2 0.00 0.00 0.00 93 1017.4
20260906110059 71 74 2.6 7.0 0.00 0.00 0.00 93 1017.4
20260906104601 71 73 2.6 7.0 0.00 0.00 0.00 93 1017.3
20260906103101 71 71 3.5 6.1 0.00 0.00 0.00 93 1017.7
20260906101558 72 61 1.7 4.3 0.00 0.00 0.00 93 1017.3
20260906100058 72 92 1.7 4.3 0.00 0.00 0.00 93 1016.8
20260906094604 71 16 1.7 4.3 0.00 0.00 0.00 93 1017.1
20260906093105 71 13 0.9 3.5 0.00 0.00 0.00 93 1016.7
20260906091611 71 94 0.9 4.3 0.00 0.00 0.00 93 1016.4
20260906090100 71 38 1.7 7.0 0.00 0.00 0.00 92 1016.3
20260906084601 71 73 1.7 3.5 0.00 0.00 0.00 92 1016.3
20260906083102 72 72 2.6 6.1 0.00 0.00 0.00 92 1016.2
20260906081600 72 90 2.6 7.0 0.00 0.00 0.00 92 1016.1
20260906080110 72 87 2.6 6.1 0.00 0.00 0.00 92 1016.2
20260906074559 72 84 1.7 6.1 0.00 0.00 0.00 92 1016.1
20260906073101 73 84 1.7 5.2 0.00 0.00 0.00 92 1016.3
20260906071603 73 82 1.7 7.8 0.00 0.00 0.00 92 1016.4
20260906070100 73 67 1.7 4.3 0.00 0.00 0.00 92 1016.3
20260906064602 74 76 1.7 6.1 0.00 0.00 0.00 91 1016.6
20260906063102 74 96 2.6 7.8 0.00 0.00 0.00 91 1016.5
20260906061603 74 65 3.5 7.8 0.00 0.00 0.00 91 1016.6
20260906054607 74 19 2.6 6.1 0.00 0.00 0.00 91 1016.7
20260906053101 75 77 2.6 7.0 0.00 0.00 0.00 91 1016.5
20260906051608 75 5 2.6 6.1 0.00 0.00 0.00 91 1016.5
20260906044555 75 42 2.6 6.1 0.00 0.00 0.00 91 1016.3
20260906043100 75 80 3.5 8.7 0.00 0.00 0.00 91 1016.1
20260906041610 76 36 1.7 6.1 0.00 0.00 0.00 90 1016.0
20260906040108 76 360 1.7 4.3 0.00 0.00 0.00 90 1016.0
20260906034606 77 11 2.6 6.1 0.00 0.00 0.00 89 1015.7
20260906033107 77 71 2.6 7.8 0.00 0.00 0.00 88 1015.3
20260906031559 78 31 3.5 7.0 0.00 0.00 0.00 87 1015.2
20260906030110 78 80 2.6 7.8 0.00 0.00 0.00 87 1015.1
20260906024627 79 85 3.5 7.8 0.00 0.00 0.00 86 1014.9
20260906023103 79 69 3.5 7.8 0.00 0.00 0.00 86 1015.1
20260906021611 80 15 3.5 8.7 0.00 0.00 0.00 86 1015.1
20260906014609 82 64 4.3 11.3 0.00 0.00 0.00 84 1014.4
20260906013103 83 66 1.7 7.0 0.00 0.00 0.00 82 1014.1
20260906011602 84 61 0.9 3.5 0.00 0.00 0.00 81 1013.8
20260906010120 84 61 0.9 3.5 0.00 0.00 0.00 80 1013.8
20260906004607 85 61 1.7 2.6 0.00 0.00 0.00 80 1013.8
20260906003111 86 61 0.9 2.6 0.00 0.00 0.00 77 1013.7
20260906001606 87 61 0.0 2.6 0.00 0.00 0.00 76 1013.9
20260906000109 87 61 0.9 3.5 0.00 0.00 0.00 75 1013.8
20260905234607 88 41 1.7 2.6 0.00 0.00 0.00 74 1013.8
20260905233106 88 63 1.7 7.0 0.00 0.00 0.00 73 1013.7
20260905231603 89 66 1.7 5.2 0.00 0.00 0.00 71 1013.6
20260905230111 90 48 3.5 7.8 0.00 0.00 0.00 69 1013.5
20260905224603 90 24 1.7 7.8 0.00 0.00 0.00 68 1013.6
20260905223103 90 57 4.3 10.4 0.00 0.00 0.00 68 1013.4
20260905221600 91 44 3.5 9.6 0.00 0.00 0.00 67 1013.3
20260905220109 92 345 4.3 9.6 0.00 0.00 0.00 66 1013.4
20260905214600 92 355 2.6 8.7 0.00 0.00 0.00 63 1013.3
20260905213105 92 50 4.3 8.7 0.00 0.00 0.00 62 1013.3
20260905211558 92 24 3.5 7.8 0.00 0.00 0.00 62 1013.7
20260905210108 92 47 2.6 7.0 0.00 0.00 0.00 61 1013.7
20260905204611 92 11 3.5 9.6 0.00 0.00 0.00 60 1013.8
20260905203102 93 14 4.3 8.7 0.00 0.00 0.00 62 1013.9
20260905201600 93 49 2.6 7.8 0.00 0.00 0.00 60 1014.1
20260905200107 93 360 2.6 8.7 0.00 0.00 0.00 62 1014.1
20260905194603 92 360 1.7 7.0 0.00 0.00 0.00 64 1014.3
20260905193109 93 355 2.6 7.8 0.00 0.00 0.00 64 1014.3
20260905191611 94 25 1.7 7.0 0.00 0.00 0.00 61 1014.4
20260905190100 93 42 3.5 8.7 0.00 0.00 0.00 58 1014.5
20260905184612 95 355 3.5 9.6 0.00 0.00 0.00 55 1014.6
20260905183105 95 42 1.7 7.8 0.00 0.00 0.00 53 1014.7
20260905181603 94 34 3.5 7.8 0.00 0.00 0.00 57 1014.7
20260905180108 93 328 2.6 8.7 0.00 0.00 0.00 54 1014.9
20260905174604 93 0 0.9 7.0 0.00 0.00 0.00 59 1014.7
20260905173101 94 360 0.9 3.5 0.00 0.00 0.00 57 1014.9
20260905171601 94 352 2.6 5.2 0.00 0.00 0.00 56 1015.0
20260905170114 94 0 2.6 6.1 0.00 0.00 0.00 57 1015.2
20260905164606 91 319 2.6 5.2 0.00 0.00 0.00 61 1015.2
20260905163100 90 341 3.5 8.7 0.00 0.00 0.00 61 1015.3
20260905161600 92 323 1.7 7.0 0.00 0.00 0.00 59 1015.3
20260905160056 93 290 3.5 7.0 0.00 0.00 0.00 55 1015.3